Philadelphia, PA

5:41 PM EST on November 15, 2019 (GMT -0500)
Philadelphia International

Weather History for KPHL - September, 2019

Change the Weather History Date:

Sunday, September 8, 2019

  Actual Average Record
Temperature  
Mean Temperature 72 °F 72 °F  
Max Temperature 82 °F 81 °F 96 °F (1939)
Min Temperature 61 °F 63 °F 45 °F (1962)
Degree Days  
Heating Degree Days 0 0  
Month to date heating degree days 0 0  
Since 1 July heating degree days 0 1  
Cooling Degree Days 7 7  
Month to date cooling degree days 68 66  
Year to date cooling degree days 1402 1183  
Growing Degree Days 22 (Base 50)    
Moisture  
Dew Point 53 °F    
Average Humidity 53    
Maximum Humidity 78    
Minimum Humidity 28    
Precipitation  
Precipitation 0.00 in 0.12 in 3.65 in (2011)
Month to date precipitation 0.50 0.93  
Year to date precipitation 36.53 28.95  
Snow  
Snow 0.00 in 0.00 in 0.00 in ()
Month to date snowfall 0.0 0.0  
Since 1 July snowfall 0.0 0.0  
Since 1 September snowfall 0.0 0.0  
Snow Depth 0.00 in    
Sea Level Pressure  
Sea Level Pressure 30.04 in    
Wind  
Wind Speed 5 mph (West)    
Max Wind Speed 13 mph    
Max Gust Speed 20 mph    
Visibility 10 miles    
Events      
T = Trace of Precipitation, MM = Missing Value Source: NWS Daily Summary

Daily Weather History Graph

Daily Weather History Graph

Search for Another Location

Airport or City:

Astronomy

Sep. 08, 2019 Rise Set
Actual Time 6:35 AM EDT 7:21 PM EDT
Civil Twilight 6:07 AM EDT 7:48 PM EDT
Nautical Twilight 5:35 AM EDT 8:21 PM EDT
Astronomical Twilight 5:01 AM EDT 8:54 PM EDT
Moon 4:27 PM EDT (9/8) 1:13 AM EDT (9/8)
Length of Visible Light 13h 41m
Length of Day
12h 46m
Waxing Gibbous, 75% of the Moon is Illuminated
Sep 8
Waxing Gibbous
Sep 14
Full
Sep 21
Last Quarter
Sep 28
New
Oct 5
First Quarter

Hourly Weather History & Observations

Time (EDT) Temp. Dew Point Humidity Pressure Visibility Wind Dir Wind Speed Gust Speed Precip Events Conditions
12:54 AM 68.0 °F 55.0 °F 63% 29.96 in 10.0 mi WNW 8.1 mph - N/A   Scattered Clouds
1:54 AM 68.0 °F 55.0 °F 63% 29.96 in 10.0 mi WNW 6.9 mph - N/A   Scattered Clouds
2:54 AM 68.0 °F 55.0 °F 63% 29.96 in 10.0 mi WNW 8.1 mph - N/A   Mostly Cloudy
3:54 AM 66.0 °F 55.0 °F 68% 29.97 in 10.0 mi Calm Calm - N/A   Scattered Clouds
4:54 AM 63.0 °F 55.0 °F 75% 29.98 in 10.0 mi WSW 3.5 mph - N/A   Scattered Clouds
5:54 AM 63.0 °F 55.0 °F 75% 30.00 in 10.0 mi Calm Calm - N/A   Scattered Clouds
6:54 AM 62.1 °F 55.0 °F 78% 30.02 in 10.0 mi Calm Calm - N/A   Scattered Clouds
7:54 AM 64.9 °F 55.0 °F 70% 30.05 in 10.0 mi Calm Calm - N/A   Mostly Cloudy
8:54 AM 69.1 °F 55.0 °F 61% 30.07 in 10.0 mi NNW 9.2 mph - N/A   Mostly Cloudy
9:54 AM 70.0 °F 54.0 °F 57% 30.08 in 10.0 mi NNW 5.8 mph - N/A   Mostly Cloudy
10:54 AM 75.0 °F 53.1 °F 46% 30.08 in 10.0 mi Calm Calm - N/A   Scattered Clouds
11:54 AM 75.0 °F 53.1 °F 46% 30.07 in 10.0 mi SW 3.5 mph - N/A   Mostly Cloudy
12:54 PM 78.1 °F 50.0 °F 37% 30.06 in 10.0 mi WSW 11.5 mph - N/A   Mostly Cloudy
1:54 PM 79.0 °F 51.1 °F 38% 30.06 in 10.0 mi Variable 4.6 mph - N/A   Scattered Clouds
2:54 PM 81.0 °F 51.1 °F 35% 30.05 in 10.0 mi South 6.9 mph - N/A   Mostly Cloudy
3:54 PM 82.0 °F 48.9 °F 31% 30.04 in 10.0 mi NW 9.2 mph - N/A   Mostly Cloudy
4:54 PM 82.0 °F 46.9 °F 29% 30.04 in 10.0 mi WNW 11.5 mph - N/A   Mostly Cloudy
5:54 PM 81.0 °F 48.9 °F 33% 30.05 in 10.0 mi WNW 9.2 mph - N/A   Scattered Clouds
6:54 PM 80.1 °F 48.9 °F 34% 30.06 in 10.0 mi West 5.8 mph - N/A   Scattered Clouds
7:54 PM 79.0 °F 50.0 °F 36% 30.08 in 10.0 mi WNW 5.8 mph - N/A   Mostly Cloudy
8:54 PM 75.0 °F 57.0 °F 53% 30.10 in 10.0 mi South 3.5 mph - N/A   Mostly Cloudy
9:54 PM 73.0 °F 57.0 °F 57% 30.12 in 10.0 mi SSW 6.9 mph - N/A   Mostly Cloudy
10:54 PM 72.0 °F 60.1 °F 66% 30.12 in 10.0 mi SW 3.5 mph - N/A   Overcast
11:54 PM 72.0 °F 61.0 °F 68% 30.12 in 10.0 mi SSW 3.5 mph - N/A   Overcast